Location: Boitzum
(52.1496°N, 9.6943°E)
Time: 10:08:11
(UTC+00:00)

ARIANE 6 FM1 Upper Stage - Pass Details

Date: 13 January 2026
Orbit: 522 x 608 km, 62.0° (Epoch: 19 February)

Event Time Altitude Azimuth Distance (km) Brightness Sun altitude
Exits shadow 05:14:03 34° 224° (SW) 890 3.4 -19.2°
Drops below altitude 10° 05:17:26 10° 167° (SSE) 1,781 5.5 -18.7°
Sets 05:19:46 0° 158° (SSE) 2,679 6.6 -18.3°
